User: anonymous
Location: Unspecified
(0.0000°N, 0.0000°E)
Time: 23:29:29
(UTC+00:00)
Language:

Transit 2A Rocket - Orbit

View from above orbital plane
View from above orbital plane
View from above satellite
View from above satellite

Ground track
Ground track

The orbit data is extracted from the following two-line orbital elements,

1 00047U 60007C   14110.17409819  .00000595  00000-0  16131-3 0  1851
2 00047 066.6684 049.3523 0226177 150.5496 210.8578 14.41071873810725
Epoch (UTC): 20 April 2014 04:10:42
Eccentricity: 0.0226177
inclination: 66.6684°
perigee height: 593 km
apogee height: 916 km
right ascension of ascending node: 49.3523°
argument of perigee: 150.5496°
revolutions per day: 14.41071873
mean anomaly at epoch: 210.8578°
orbit number at epoch: 81072

The dashed part of the orbit path shows where the satellite is in the earth's shadow,  

DLR